This demonstration page uses our WeatherBlox Daily Observations layout. Learn more.

Left ArrowRight Arrow

38.89511, -77.03637

Hourly Observations for May 14, 2017

Temp ( °F °C ) Dew Point ( °F °C ) Humidity (%) Winds ( mph kmh ) Pressure ( in mb ) Visibility ( mi km ) Precip ( " mm )
12:52 am 00:52 Mostly Cloudy 52 11.1 48 8.9 86 86 NW 5 7 29.84 1010 10 16 0.00 0.00
1:52 am 01:52 Mostly Cloudy 50 10 47 8.3 89 89 WSW 3 6 29.83 1010 10 16 0.00 0.00
2:52 am 02:52 Mostly Cloudy 49 9.4 47 8.3 93 93 WSW 5 7 29.82 1010 10 16 0.00 0.00
3:52 am 03:52 Mostly Cloudy 49 9.4 48 8.9 97 97 Calm 29.80 1009 10 16 0.00 0.00
4:52 am 04:52 Mostly Cloudy 49 9.4 47 8.3 93 93 SSW 8 13 29.80 1009 10 16 0.00 0.00
5:52 am 05:52 Mostly Cloudy 47 8.3 46 7.8 97 97 SW 3 6 29.81 1010 10 16 0.00 0.00
6:52 am 06:52 Mostly Cloudy 50 10 49 9.4 96 96 S 5 7 29.82 1010 10 16 0.00 0.03
7:52 am 07:52 Mostly Cloudy 53 11.7 51 10.6 93 93 SSW 6 9 29.81 1009 10 16 0.00 0.00
8:52 am 08:52 Mostly Sunny 56 13.3 53 11.7 90 90 S 8 13 29.79 1009 10 16 0.00 0.00
9:52 am 09:52 Partly Cloudy 61 16.1 55 12.8 81 81 S 8 13 29.77 1008 10 16 0.00 0.00
10:52 am 10:52 Mostly Sunny 66 18.9 56 13.3 70 70 SSE 10 17 29.76 1008 10 16 0.00 0.00
11:52 am 11:52 Partly Cloudy 74 23.3 51 10.6 45 45 W 16 26 29.74 1007 10 16 0.00 0.00
12:52 pm 12:52 Partly Cloudy 76 24.4 48 8.9 37 37 NW 15 24 29.73 1007 10 16 0.00 0.00
1:52 pm 13:52 Partly Cloudy 79 26.1 47 8.3 32 32 WNW 20 31 29.70 1006 10 16 0.00 0.00
2:52 pm 14:52 Mostly Cloudy 81 27.2 44 6.7 27 27 WNW 24 39 29.69 1005 10 16 0.00 0.00
3:52 pm 15:52 Mostly Cloudy 79 26.1 37 2.8 22 22 NW 24 39 29.69 1005 10 16 0.00 0.00
4:52 pm 16:52 Mostly Cloudy 80 26.7 38 3.3 22 22 NW 22 35 29.68 1005 10 16 0.00 0.00
5:52 pm 17:52 Partly Cloudy 79 26.1 40 4.4 25 25 NNW 14 22 29.67 1005 10 16 0.00 0.00
6:52 pm 18:52 Mostly Cloudy 78 25.6 41 5 27 27 WNW 16 26 29.67 1005 10 16 0.00 0.00
7:52 pm 19:52 Partly Cloudy 77 25 44 6.7 31 31 WNW 12 19 29.68 1005 10 16 0.00 0.00
8:52 pm 20:52 Cloudy 75 23.9 45 7.2 34 34 NW 8 13 29.69 1006 10 16 0.00 0.00
9:52 pm 21:52 Mostly Cloudy 72 22.2 46 7.8 40 40 NNW 10 17 29.73 1007 10 16 0.00 0.00
10:52 pm 22:52 Mostly Cloudy 69 20.6 42 5.6 38 38 NNW 22 35 29.78 1008 10 16 0.00 0.00
11:52 pm 23:52 Mostly Cloudy 65 18.3 31 -0.6 28 28 NNW 18 30 29.81 1010 10 16 0.00 0.00

Powered by AerisWeather